Location: Bucaritos
(10.0779°N, 67.0369°W)
Time: 04:38:57
(UTC+00:00)

USA 281 - Pass Details

Date: 27 June 2022
Orbit: 1070 x 1089 km, 106.0° (Epoch: 20 June)

Event Time Altitude Azimuth Distance (km) Brightness Sun altitude
Rises 23:44:43 0° 177° (S) 3,855 5.8 -12.4°
Reaches altitude 10° 23:47:23 10° 184° (S) 2,902 5.3 -13.0°
Maximum altitude 23:53:24 40° 251° (WSW) 1,531 4.4 -14.3°
Drops below altitude 10° 23:59:27 10° 319° (NW) 2,913 6.6 -15.7°
Sets 00:02:08 0° 327° (NNW) 3,872 7.2 -16.2°
